Regional Weather Roundup
Issued by NWS Wakefield, VA

Home | Current Version | Previous Version | Text Only | Print | Product List | Glossary Off
Versions: 1 2 3 4 5 6 7 8 9 10 11 12 13 14 15 16 17 18 19 20 21 22 23 24 25 26 27 28 29 30 31 32 33 34 35 36 37 38 39 40 41 42 43 44 45 46 47 48 49 50

000
ASUS41 KAKQ 300110
RWRAKQ

REGIONAL WEATHER ROUNDUP
NATIONAL WEATHER SERVICE WAKEFIELD VA
800 PM EST THU JAN 29 2015

Note: "fair" indicates few or no clouds below 12,000 feet with no
significant weather and/or obstructions to visibility. * = Denotes
station may not report precipitation (e.g., rain,snow,etc.),
thunder or fog.

VAZ042-051-052>054-056-300200-
NORTHERN VIRGINIA

CITY           SKY/WX    TMP DP  RH WIND       PRES   REMARKS
WASH NATIONAL  CLOUDY    36  25  64 S8        30.04F
DULLES         CLOUDY    34  20  56 S9        30.00F
FORT BELVOIR   CLOUDY    33  27  79 SE5       30.04F
QUANTICO       CLOUDY    36  26  67 S12       30.06F
FREDERICKSBRG* CLOUDY    39  19  43 S8        30.04F
STAFFORD*      CLOUDY    37  15  40 CALM      30.08S
WARRENTON      CLOUDY    37  27  67 CALM      30.00F
CULPEPER*      CLOUDY    37  23  56 CALM      30.01F
MANASSAS*      CLOUDY    34  27  75 S7        30.02F
LEESBURG*      CLOUDY    32  30  93 S6        30.00F
WINCHESTER     CLOUDY    36  23  60 S7        29.93F
FRONT ROYAL*   CLOUDY    34  28  80 S5        29.93F
LURAY*         CLOUDY    39  30  70 SW8       29.94F
$$

VAZ048-049-060>072-079>083-300200-
CENTRAL AND SOUTH CENTRAL VIRGINIA

CITY           SKY/WX    TMP DP  RH WIND       PRES   REMARKS
RICHMOND       MOCLDY    40  19  43 S7        30.08R
CHESTERFIELD*  MOCLDY    39  12  33 S6        30.09R
PETERSBURG*    MOCLDY    38  16  41 CALM      30.09S
HANOVER        CLOUDY    40  17  39 S9        30.09S
TAPPAHANNOCK*  CLOUDY    39  15  37 S3        30.09S
QUINTON*       CLOUDY    40  17  39 S3        30.09R
CHARLOTTSVILLE CLOUDY    38  22  52 S8        30.00F
GORDONSVILLE*  CLOUDY    37  22  52 CALM      30.01F
ORANGE*        CLOUDY    37  23  56 SE6       30.03F
LOUISA*        CLOUDY    41  19  42 S7        30.01F
BUMPASS*       CLOUDY    39  18  43 S6        30.04F
FARMVILLE*     CLEAR     37  19  47 S5        30.05S
CREWE*         MOCLDY    37  18  46 CALM      30.07R
FORT PICKETT*  FAIR      35  20  54 S5        30.07S
CHASE CITY*    FAIR      38  25  58 CALM      30.07R
CLARKSVILLE*   FAIR      36  25  64 SW3       30.07F
SOUTH HILL*    CLEAR     35  22  59 S9        30.13F
LAWRENCEVILLE* FAIR      37  21  53 S5        30.08F
EMPORIA*       CLEAR     36  21  55 SE5       30.11F
$$

VAZ088>098-300200-
SOUTHEAST VIRGINIA

CITY           SKY/WX    TMP DP  RH WIND       PRES   REMARKS
NORFOLK        CLOUDY    40  18  41 S12       30.10F
VIRGINIA BEACH CLOUDY    40  19  43 S7        30.11F
NORFOLK NAVAL  MOCLDY    43  19  38 VRB6      30.11F
WEST POINT*    CLOUDY    42  21  42 S3        30.11S
SALUDA*        CLOUDY    38  24  56 S8        30.09F
NEWPORT NEWS   CLOUDY    42  21  43 S9        30.10F
LANGLEY AFB    CLOUDY    40  21  46 S12       30.10F
FORT EUSTIS    CLOUDY    40  26  57 SW6       30.08F
WILLIAMSBURG*    N/A     43  25  49 S7        30.11S
HR EXEC AP*    CLOUDY    39  19  45 S7        30.12F
FRANKLIN*      MOCLDY    38  19  45 S7        30.11S
WAKEFIELD      MOCLDY    40  17  39 S3        30.10S
$$

VAZ020-022-025-037-045-300200-
WEST CENTRAL AND SOUTHWEST VIRGINIA

CITY           SKY/WX    TMP DP  RH WIND       PRES   REMARKS
STAUNTON*      CLOUDY    38  25  59 S7        29.96F
WAYNESBORO*    CLOUDY    39  25  57 S12       29.94F
HOT SPRINGS VA CLOUDY    35  28  76 SW15      29.86F
LYNCHBURG      CLOUDY    37  25  61 S3        30.04F
DANVILLE       PTCLDY    40  24  53 SW7       30.08R
SOUTH BOSTON*  FAIR      39  21  48 SW7       30.07R
MARTINSVILLE   CLOUDY    42  24  47 SW6       30.08S
ROANOKE        CLOUDY    40  27  59 CALM      30.01F
BLACKSBURG     CLOUDY    37  25  62 CALM      30.01F
DUBLIN*        CLOUDY    39  30  69 CALM      30.00S
MARION*        CLOUDY    43  32  64 W12       30.00S
HILLSVILLE*    CLOUDY    37  26  62 S10       29.99F
RICHLANDS*     CLOUDY    44  31  60 SW17G25   29.98S
WISE*          CLOUDY    45  32  61 SW14G22   30.01R
ABINGDON*      CLOUDY    43  32  64 CALM      30.02R
$$

MDZ021>025-VAZ099-100-300200-
SOUTHERN MARYLAND AND THE DELMARVA PENINSULA

CITY           SKY/WX    TMP DP  RH WIND       PRES   REMARKS
PATUXENT RIVER CLOUDY    36  25  64 S7        30.07F
BAY BRIDGE APT   N/A     34  23  64 SE14      30.06F WCI  24
LEONARDTOWN    CLOUDY    34  27  75 SE6       30.08F
DOVER          LGTSLEET  32  25  77 SE9       30.09F
GEORGETOWN     FLURRIES  33  23  66 S6        30.11F
EASTON         CLOUDY    36  27  69 S9        30.10F
CAMBRIDGE      CLOUDY    36  25  64 S8        30.08F
SALISBURY      LGT RAIN  36  24  62 SE5       30.10F
OCEAN CITY     CLOUDY    36  28  73 CALM      30.12S
WALLOPS ISLAND LGT RAIN  36  27  69 SW12      30.12F
ACCOMACK*      FLURRIES  36  27  69 S10       30.10F
$$

NCZ012>017-030>032-300200-
NORTH CENTRAL AND EASTERN NORTH CAROLINA

CITY           SKY/WX    TMP DP  RH WIND       PRES   REMARKS
ROANOKE RAPIDS FAIR      37  23  56 S5        30.10F
RALEIGH        MOCLDY    39  24  55 SW7       30.10S
ELIZABETH CITY CLOUDY    40  27  59 S7        30.13F
AHOSKIE*       CLOUDY    40  20  44 CALM      30.11F
EDENTON*       CLOUDY    41  28  59 S10       30.13F
CURRITUCK*     CLOUDY    39  24  56 CALM      30.14F
KILL DEVIL HLS CLOUDY    39  28  63 S5        30.13F
MANTEO         CLOUDY    39  28  65 S14       30.15F
CAPE HATTERAS  MOCLDY    41  27  57 SW8       30.19S
TARBORO*       CLOUDY    43  22  43 S3        30.12F
GOLDSBORO      MOCLDY    45  31  57 S9        30.10F
WASHINGTON     CLOUDY    42  23  47 S7        30.15R
GREENVILLE     MOCLDY    45  21  39 S12       30.14S
NEW BERN       LGT RAIN  45  26  47 S7        30.17F
WILMINGTON     MOCLDY    46  34  62 S6        30.17F
$$

VAZ048-300200-
ELSEWHERE

CITY           SKY/WX    TMP DP  RH WIND       PRES   REMARKS
HARRISBURG PA  FLURRIES  27  24  89 E7        30.01F
BALTIMORE      CLOUDY    32  28  85 SE5       30.03F
ANNAPOLIS      CLOUDY    34  25  69 S12       30.05F
ANDREWS AFB    CLOUDY    32  26  78 SE8       30.03F
PHILADELPHIA   FLURRIES  34  20  56 S8        30.09F
HENDERSON NC   PTCLDY    35  22  61 CALM      30.08F
GREENSBORO     PTCLDY    38  25  59 SW5       30.06F
ROCKY MOUNT    MOCLDY    40  21  46 S6        30.10F
$$

VAZ100-300200-
MARINE

STATION/POSITION TIME  TEMP    WIND        PRES    WAVE   SWELL
                       AIR SEA DIR/SP/G            HT/PER HT/PER
                 (UTC) (F)     (DEG/KT/KT) (MB)    (FT/S) (FT/S)
BRANDYWINE LGT   0100   35 36  210/ 18/ 19 1019.6S
CAPE MAY NJ      0100   35 37              1019.0F
LEWES DE         0100   35 36  220/  6/  8 1019.4F
15NM E FENWICK I 0100   38 40              1019.3F   3/11
OCEAN-CITY-INLET 0100   37 38  210/ 13/ 16 1019.2F
WACHAPREAGUE VA  0100   37 36  190/  7/ 10 1019.5F
THOMAS POINT MD  0100   34 35  160/ 19/ 21 1018.3F
GOOSES REEF MD   0100   36     VRB 17/ 19  1017.0F
COVE POINT MD    0100   35     190/ 20/ 22 1018.2F
SOLOMONS ISLAND  0100      37                N/A
BISHOPS HEAD MD  0100   35 34  160/ 15/ 17 1018.3R
PINEY POINT MD   0100          170/ 10/ 12   N/A
POTOMAC MD       0100   37     180/ 10/ 14 1017.9S
CAMBRIDGE MD     0100   34 35  160/  6/ 10 1018.4F
LEWISETTA VA     0100   37 36  190/  8/ 10 1018.5F
RAPPAHANNOCK LGT 0100          150/ 14/ 15 1019.5F
STINGRAY PT      0100   39     180/ 14/ 16 1019.6R
YORK RVR RNG VA  0100   40     190/ 13/ 15 1018.5F
YORKTOWN VA      0100   40 40  180/  6/ 10 1018.8F
JAMESTOWN VA     0100   40     180/  6/ 10   N/A
DOMINION TERM VA 0100   40     180/ 11/ 12 1019.3S
KIPTOPEKE VA     0100      44  190/ 13/ 16   N/A
CHES BAY BRIDGE  0100   40 40  170/ 13/ 15 1019.2F
CAPE HENRY VA    0100   39     170/  8/ 13 1018.1F
CHESAPEAKE LGHT  0000   40     190/ 19/ 20 1020.5F
WILLOUBY STN VA  0100   40     190/ 14/ 15 1019.7R
S CRANEY ISL VA  0100          180/ 10/ 15 1019.3R
CAPE HENRY BUOY  0100      42                N/A     3/12   2/12
1ST LANDING BUOY 0100   40     190/ 12/ 16 1019.1F
CAPE CHARLES BUO 0100      41                N/A     3/12   2/12
OFFSHORE WE BUOY 0100      43                N/A     3/ 9   3/ 9
64NM E OF VA BCH 0100   42 49  220/ 14/ 16 1020.2F   3/11   2/11
DUCK PIER NC     0100   40 43  180/ 11/ 15 1019.5F
44100 DUCK FRF   0100      45                N/A     3/11   2/11
44056 DUCK FRF   0100      42                N/A     3/12   2/12
OREGON INLET NC  0100   40 42  180/ 10/ 11 1021.4F
HATTERAS NC      0100   42 44  190/  3/  7 1022.2R


USA.gov is the U.S. government's official web portal to all federal, state and local government web resources and services.